Powrót do katalogu

STARLINK-32007

AktywnyŁącznośćVLEO
NORAD 60094·PAYLOAD·🇺🇸 United States

Wystrzelony Jun 23, 2024 z Cape Canaveral Space Force Station

Loading…

Następne Przeloty (najbliższe 24 godziny)

TLE

ŚwieżeSource: CelesTrak SupGP

Epoka: Sep 14, 2026, 22:05 UTC

1 60094C 24117D   26257.92062500  .00032220  00000+0  95183-3 0  2574
2 60094  53.1575 235.4412 0000945  93.5396  28.4740 15.34378643    11

Śledź STARLINK-32007 w czasie rzeczywistym z AllMySat

Download on the App Store